THOR ABLESTAR DEB, 543

Orbit data source: Space-Track

THOR ABLESTAR DEB, 543 is space debris in LEO originally from a launch on Thu, 29 Jun 1961 UTC launched from the Air Force Eastern Test Range (AFETR). Debris objects in space refer to the collection of defunct objects orbiting the Earth. Examples of debris include non-operational satellites, rocket bodies, and fragments generated from explosions, collisions, or faulty payload assembly.

Loading next visibility...
Identifier
543, 1961-015GC
Orbit
LEO
Country
Flag of USUS
Related business
Manufacturer
Unknown
Mission
Spacecraft
Bus & Motor
Unknown
Mass
Unknown
Launch date (UTC)
1961-06-29 (64 years ago)
Launch vehicle
Unknown
Launch site
Air Force Eastern Test Range (AFETR)
Object type
Payload
Rocket body
Debris
Shape & HBR
Unknown shape, 0.1 m
Radar Cross Section
Small (<0.1 m²)

Expand to show TLE details & history
Last TLE update: 14 hours ago

TLE from 14 hours ago
0 THOR ABLESTAR DEB
1 00543U 61015GC  25286.78417850  .00000145  00000-0  24562-3 0  9990
2 00543  67.0306 158.9407 0066197  13.6332 113.0931 13.69116378202969
Epoch: 2025-10-13T18:49Z
TLE epoch observation values (Epoch: 2025-10-13T18:49:13.022Z)
Latitude
47.09851°
Longitude
7.07103°
Altitude
1,028.636 km
Speed
7.333 km/s
True Right ascension
20h 47m 49s
True Declination
46° 55' 60"
Sunlit
Object was in daylight at epoch
Visualization orbit readout
Latitude
Unknown
Longitude
Unknown
Altitude
Unknown
Speed
Unknown
Apparent Right ascension
Unknown
Apparent Declination
Unknown
Sunlit
N/A
Visualization observer readout
Local Sidereal Time
03:41:40
Azimuth
Unknown
Elevation
Unknown
Doppler factor
Unknown
Orbital elements
Apogee altitude
1,049.978 km
Perigee altitude
952.281 km
Semi-major axis
7,379.266 km
Eccentricity
0.00662
Inclination
67.0306°
RAAN
158.9407°
Arg. of periapsis
13.6332°
True anomaly
113.7886°
Mean anomaly
113.0931°
Eccentric anomaly
113.44108°
Mean motion
3.42392 °/min
Orbital period
105.14 mins
BSTAR
0.00024562
Loading maneuver chart data...
Computing Atmospheric mass density...
Loading historical data...
Loading historical data...
Loading historical data...
Loading historical data...
Loading historical data...
Loading historical data...
Loading historical data...

Documentation

Showing up to 5 results
|